• In Belarus
  • List of Countries
  • For 7 days
  • Water Temperature
  • Weather Map
  • Weather Widgets
  • user-avatar
    Login

    Hourly Weather Mahilyow

    Today, 15 September, Sunday

    Time Temperature Precipitation Wind Pressure Humidity
    00:00 +9°C° 0 mm 3 mps 753 mmHg 84%
    01:00 +9°C° 0 mm 3 mps 753 mmHg 85%
    02:00 +9°C° 0 mm 3 mps 753 mmHg 83%
    03:00 +8°C° 0 mm 3 mps 753 mmHg 86%
    04:00 +7°C° 0 mm 3 mps 753 mmHg 89%
    05:00 +7°C° 0 mm 3 mps 753 mmHg 92%
    06:00 +8°C° 0 mm 3 mps 753 mmHg 87%
    07:00 +9°C° 0 mm 3 mps 752 mmHg 82%
    08:00 +10°C° 0 mm 4 mps 752 mmHg 77%
    09:00 +11°C° 0 mm 4 mps 752 mmHg 72%
    10:00 +13°C° 0 mm 5 mps 751 mmHg 67%
    11:00 +14°C° 0 mm 5 mps 751 mmHg 62%
    12:00 +15°C° 0 mm 6 mps 750 mmHg 60%
    13:00 +15°C° 0 mm 6 mps 749 mmHg 57%
    14:00 +16°C° 0 mm 7 mps 749 mmHg 55%
    15:00 +15°C° 0 mm 6 mps 748 mmHg 57%
    16:00 +15°C° 0 mm 6 mps 747 mmHg 59%
    17:00 +14°C° 0 mm 6 mps 746 mmHg 61%
    18:00 +14°C° 0 mm 6 mps 745 mmHg 62%
    19:00 +13°C° 0 mm 6 mps 745 mmHg 63%
    20:00 +13°C° 0 mm 6 mps 744 mmHg 63%
    21:00 +13°C° 0.1 mm 5 mps 744 mmHg 65%
    22:00 +13°C° 0.1 mm 5 mps 743 mmHg 67%
    23:00 +13°C° 0.1 mm 5 mps 742 mmHg 68%

    Tomorrow, 16 September, Monday

    Time Temperature Precipitation Wind Pressure Humidity
    00:00 +12°C° 0.3 mm 5 mps 742 mmHg 74%
    01:00 +12°C° 0.3 mm 5 mps 742 mmHg 80%
    02:00 +11°C° 0.3 mm 6 mps 741 mmHg 86%
    03:00 +11°C° 0.6 mm 6 mps 741 mmHg 87%
    04:00 +11°C° 0.6 mm 6 mps 741 mmHg 88%
    05:00 +11°C° 0.6 mm 6 mps 740 mmHg 89%
    06:00 +11°C° 0.2 mm 6 mps 740 mmHg 87%
    07:00 +11°C° 0.2 mm 6 mps 740 mmHg 85%
    08:00 +11°C° 0.2 mm 6 mps 740 mmHg 83%
    09:00 +12°C° 0.1 mm 7 mps 740 mmHg 74%
    10:00 +14°C° 0.1 mm 7 mps 740 mmHg 65%
    11:00 +15°C° 0.1 mm 8 mps 740 mmHg 56%
    12:00 +15°C° 0.1 mm 8 mps 740 mmHg 58%
    13:00 +13°C° 0.1 mm 8 mps 740 mmHg 59%
    14:00 +13°C° 0.1 mm 8 mps 740 mmHg 61%
    15:00 +14°C° 0 mm 7 mps 740 mmHg 62%
    16:00 +12°C° 0 mm 7 mps 740 mmHg 63%
    17:00 +13°C° 0 mm 6 mps 740 mmHg 64%
    18:00 +11°C° 0 mm 6 mps 740 mmHg 66%
    19:00 +12°C° 0 mm 5 mps 740 mmHg 68%
    20:00 +11°C° 0 mm 4 mps 740 mmHg 70%
    21:00 +10°C° 0 mm 4 mps 740 mmHg 71%
    22:00 +10°C° 0 mm 4 mps 740 mmHg 72%
    23:00 +10°C° 0 mm 4 mps 740 mmHg 73%

    Day after tomorrow, 17 September, Tuesday

    Time Temperature Precipitation Wind Pressure Humidity
    00:00 +8°C° 0 mm 4 mps 740 mmHg 76%
    01:00 +8°C° 0 mm 4 mps 740 mmHg 78%
    02:00 +7°C° 0 mm 4 mps 740 mmHg 80%
    03:00 +7°C° 0 mm 4 mps 740 mmHg 82%
    04:00 +7°C° 0 mm 4 mps 740 mmHg 85%
    05:00 +6°C° 0 mm 4 mps 739 mmHg 87%
    06:00 +7°C° 0 mm 5 mps 739 mmHg 84%
    07:00 +8°C° 0 mm 5 mps 739 mmHg 80%
    08:00 +9°C° 0 mm 6 mps 739 mmHg 76%
    09:00 +10°C° 0.1 mm 6 mps 739 mmHg 72%
    10:00 +11°C° 0.1 mm 6 mps 739 mmHg 69%
    11:00 +13°C° 0.1 mm 6 mps 739 mmHg 65%
    12:00 +12°C° 0.3 mm 7 mps 738 mmHg 63%
    13:00 +12°C° 0.3 mm 7 mps 738 mmHg 62%
    14:00 +12°C° 0.3 mm 7 mps 738 mmHg 60%
    15:00 +13°C° 0.2 mm 6 mps 738 mmHg 62%
    16:00 +13°C° 0.2 mm 4 mps 737 mmHg 64%
    17:00 +12°C° 0.2 mm 3 mps 737 mmHg 67%
    18:00 +11°C° 0.1 mm 3 mps 737 mmHg 72%
    19:00 +10°C° 0.1 mm 3 mps 737 mmHg 78%
    20:00 +9°C° 0.1 mm 3 mps 737 mmHg 83%
    21:00 +8°C° 0.2 mm 3 mps 736 mmHg 85%
    22:00 +7°C° 0.2 mm 4 mps 736 mmHg 87%
    23:00 +7°C° 0.2 mm 4 mps 736 mmHg 88%

    18 September, Wednesday

    Time Temperature Precipitation Wind Pressure Humidity
    00:00 +7°C° 0.5 mm 4 mps 735 mmHg 89%
    01:00 +7°C° 0.5 mm 4 mps 735 mmHg 89%
    02:00 +6°C° 0.5 mm 5 mps 735 mmHg 89%
    03:00 +6°C° 0.3 mm 5 mps 735 mmHg 89%
    04:00 +6°C° 0.3 mm 5 mps 735 mmHg 89%
    05:00 +5°C° 0.3 mm 5 mps 735 mmHg 89%
    06:00 +5°C° 0 mm 5 mps 735 mmHg 88%
    07:00 +5°C° 0 mm 5 mps 735 mmHg 87%
    08:00 +5°C° 0 mm 5 mps 735 mmHg 85%
    09:00 +5°C° 0.1 mm 5 mps 736 mmHg 85%
    10:00 +5°C° 0.1 mm 5 mps 737 mmHg 85%
    11:00 +5°C° 0.1 mm 5 mps 737 mmHg 85%
    12:00 +6°C° 0.1 mm 5 mps 738 mmHg 83%
    13:00 +7°C° 0.1 mm 5 mps 738 mmHg 81%
    14:00 +8°C° 0.1 mm 5 mps 739 mmHg 79%
    15:00 +8°C° 0.1 mm 5 mps 739 mmHg 76%
    16:00 +10°C° 0.1 mm 4 mps 739 mmHg 74%
    17:00 +10°C° 0.1 mm 4 mps 740 mmHg 71%
    18:00 +8°C° 0 mm 4 mps 740 mmHg 78%
    19:00 +7°C° 0 mm 3 mps 741 mmHg 84%
    20:00 +5°C° 0 mm 3 mps 741 mmHg 90%
    21:00 +5°C° 0 mm 3 mps 742 mmHg 92%
    22:00 +5°C° 0 mm 3 mps 742 mmHg 94%
    23:00 +4°C° 0 mm 3 mps 742 mmHg 95%

    19 September, Thursday

    Time Temperature Precipitation Wind Pressure Humidity
    00:00 +4°C° 0 mm 3 mps 742 mmHg 96%
    01:00 +4°C° 0 mm 3 mps 743 mmHg 96%
    02:00 +4°C° 0 mm 3 mps 743 mmHg 96%
    03:00 +3°C° 0 mm 3 mps 743 mmHg 97%
    04:00 +3°C° 0 mm 3 mps 744 mmHg 97%
    05:00 +3°C° 0 mm 3 mps 744 mmHg 97%
    06:00 +4°C° 0 mm 3 mps 744 mmHg 95%
    07:00 +5°C° 0 mm 3 mps 745 mmHg 93%
    08:00 +5°C° 0 mm 4 mps 745 mmHg 91%
    09:00 +7°C° 0 mm 3 mps 746 mmHg 86%
    10:00 +8°C° 0 mm 3 mps 746 mmHg 81%
    11:00 +8°C° 0 mm 3 mps 747 mmHg 76%
    12:00 +9°C° 0.1 mm 3 mps 747 mmHg 69%
    13:00 +10°C° 0.1 mm 4 mps 747 mmHg 62%
    14:00 +11°C° 0.1 mm 4 mps 747 mmHg 56%
    15:00 +11°C° 0.1 mm 3 mps 747 mmHg 60%
    16:00 +10°C° 0.1 mm 3 mps 747 mmHg 64%
    17:00 +10°C° 0.1 mm 2 mps 747 mmHg 68%
    18:00 +8°C° 0 mm 2 mps 748 mmHg 75%
    19:00 +7°C° 0 mm 2 mps 748 mmHg 81%
    20:00 +5°C° 0 mm 2 mps 748 mmHg 88%
    21:00 +5°C° 0 mm 2 mps 748 mmHg 89%
    22:00 +5°C° 0 mm 2 mps 748 mmHg 90%
    23:00 +5°C° 0 mm 1 mps 749 mmHg 91%

    20 September, Friday

    Time Temperature Precipitation Wind Pressure Humidity
    00:00 +4°C° 0 mm 2 mps 749 mmHg 92%
    01:00 +3°C° 0 mm 2 mps 749 mmHg 93%
    02:00 +3°C° 0 mm 2 mps 749 mmHg 93%
    03:00 +3°C° 0 mm 2 mps 749 mmHg 94%
    04:00 +2°C° 0 mm 2 mps 749 mmHg 94%
    05:00 +2°C° 0 mm 2 mps 749 mmHg 95%
    06:00 +3°C° 0 mm 2 mps 750 mmHg 90%
    07:00 +4°C° 0 mm 2 mps 750 mmHg 86%
    08:00 +5°C° 0 mm 2 mps 750 mmHg 82%
    09:00 +6°C° 0 mm 2 mps 750 mmHg 74%
    10:00 +8°C° 0 mm 3 mps 751 mmHg 66%
    11:00 +10°C° 0 mm 3 mps 751 mmHg 58%
    12:00 +10°C° 0.1 mm 3 mps 751 mmHg 56%
    13:00 +10°C° 0.1 mm 3 mps 751 mmHg 53%
    14:00 +11°C° 0.1 mm 3 mps 751 mmHg 51%
    15:00 +10°C° 0.1 mm 3 mps 751 mmHg 54%
    16:00 +10°C° 0.1 mm 3 mps 752 mmHg 57%
    17:00 +9°C° 0.1 mm 3 mps 752 mmHg 61%
    18:00 +7°C° 0 mm 3 mps 752 mmHg 66%
    19:00 +6°C° 0 mm 2 mps 753 mmHg 71%
    20:00 +4°C° 0 mm 2 mps 753 mmHg 76%
    21:00 +4°C° 0 mm 2 mps 754 mmHg 80%
    22:00 +3°C° 0 mm 2 mps 754 mmHg 83%
    23:00 +3°C° 0 mm 2 mps 754 mmHg 87%
    Show more